Probability
0 0 0 0 0 0 0 0 0 0 0 0 0 0 0 0 0 0 0 0 0 0 0 0 0 0 0 0 0 0 1 1 1 1 0 0 0 0
0 0 0 0 0 0 0 0 0 0 0 0 0 0 0 0 0 0 0 0 0 0 0 0 0 0 0 0 0 0 0 0 1 1 0 0 0 0
0 0 0 0 0 0 0 0 0 0 0 0 0 0 0 0 0 0 0 0 0 0 0 0 0 0 0 0 0 0 0 0 0 0 0 0 0 0
0 0 0 0 0 0 0 0 0 0 0 0 0 0 0 0 0 0 0 0 1 0 0 0 0 0 0 0 0 0 0 0 0 0 0 0 0 0
0 0 0 0 0 0 0 0 0 0 0 0 0 0 0 0 0 0 0 0 0 0 0 0 0 0 0 0 0 0 0 0 0 0 0 0 0 0
0 0 0 0 0 0 0 0 0 0 0 0 0 0 0 0 0 0 0 0 0 0 0 0 0 0 0 0 0 0 0 0 0 0 0 0 0 0
0 0 0 0 0 0 0 0 0 0 0 0 0 0 0 0 0 0 0 0 0 0 0 0 0 0 0 0 0 0 0 0 0 0 0 0 0 0
0 0 0 0 0 0 0 0 0 0 0 0 0 0 0 0 0 0 0 0 0 0 0 0 0 0 0 0 0 0 0 0 0 0 0 0 0 0
0 0 0 0 0 0 0 0 0 0 0 0 0 0 0 0 0 0 0 0 0 0 0 0 0 0 0 0 0 0 0 0 0 0 0 0 0 0
0 0 0 0 0 0 0 0 0 0 0 0 0 0 0 0 0 0 0 0 0 0 0 0 0 0 0 0 0 0 0 0 0 0 0 0 0 0
0 0 0 0 0 0 0 0 0 0 0 0 0 0 0 0 0 0 0 0 0 0 0 0 0 0 0 0 0 0 0 0 0 0 0 0 0 0
0 0 0 0 0 0 0 0 0 0 0 0 0 0 0 0 0 0 0 0 0 0 0 0 0 0 0 0 0 0 0 0 0 0 0 0 0 0
0 0 0 0 0 0 0 0 0 0 0 0 0 0 0 0 0 0 0 0 0 0 0 0 0 0 0 0 0 0 0 0 0 0 0 0 0 0
0 0 0 0 0 0 0 0 0 0 0 0 0 0 0 0 0 0 0 0 0 0 0 0 0 0 0 0 0 0 0 0 0 0 0 0 0 0
0 0 0 0 0 0 0 0 0 0 0 0 0 0 0 0 0 0 0 0 0 0 0 0 0 0 0 0 0 0 0 0 0 0 0 0 0 0
0 0 0 0 0 0 0 0 0 0 0 0 0 0 0 0 0 0 0 0 0 0 0 0 0 0 0 0 0 0 0 0 0 0 0 0 0 0
0 0 0 0 0 0 0 0 0 0 0 0 0 0 0 0 0 0 0 0 0 0 0 0 0 0 0 0 0 0 0 0 0 0 0 0 0 0
0 0 0 0 0 0 0 0 0 0 0 0 0 0 0 0 0 0 0 0 0 0 0 0 0 0 0 0 0 0 0 0 0 0 0 0 0 0
0 0 0 0 0 0 0 0 0 0 0 0 0 0 0 0 0 0 0 0 0 0 0 0 0 0 0 0 0 0 0 0 0 0 0 0 0 0
0 0 0 0 0 0 0 0 0 0 0 0 0 0 0 0 0 0 0 0 0 0 0 0 0 0 0 0 0 0 0 0 0 0 0 0 0 0
0 0 0 0 0 0 0 0 0 0 0 0 0 0 0 0 0 0 0 0 0 0 0 0 0 0 0 0 0 0 0 0 0 0 0 0 0 0
0 0 0 0 0 0 0 0 0 0 0 0 0 0 0 0 0 0 0 0 0 0 0 0 0 0 0 0 0 0 0 0 0 0 0 0 0 0
0 0 0 0 0 0 0 0 0 0 0 0 0 0 0 0 0 0 0 0 0 0 0 0 0 0 0 0 0 0 0 0 0 0 0 0 0 0
Wind_Speed
6 6 6 5 5 5 5 5 6 8 8 5 4 4 4 4 6 6 6 10 12 13 14 15 16 16 17 18 19 20 20 20 20 19 20 20 19 19
4 5 6 5 4 4 4 5 6 7 9 4 4 4 4 4 6 6 7 11 12 13 14 15 16 17 17 18 19 19 20 20 20 20 20 19 19 20
4 5 5 4 4 3 3 4 5 5 9 7 4 4 5 6 6 5 6 7 7 12 14 15 16 16 16 16 17 18 18 19 20 19 19 19 19 19
4 4 4 3 4 3 3 4 5 5 7 10 6 5 6 6 5 6 6 6 6 10 13 15 14 14 14 15 16 16 17 17 18 18 18 18 19 19
3 4 4 3 4 3 4 4 4 4 5 7 7 5 5 4 5 6 6 6 6 8 11 12 12 13 14 15 15 16 16 16 16 16 16 17 17 18
2 2 3 3 3 4 3 4 4 4 5 5 6 5 5 4 4 5 7 5 6 6 8 8 10 12 13 14 15 15 15 16 16 16 15 15 15 16
2 2 1 2 3 3 3 3 3 4 4 4 5 5 5 4 4 4 7 7 7 5 5 5 5 6 7 10 12 14 15 15 15 15 15 15 15 15
1 1 1 1 3 4 4 5 4 5 5 5 5 6 7 6 5 5 6 7 7 3 5 7 4 7 7 6 11 14 14 15 14 15 15 15 15 15
1 1 1 2 2 3 4 5 4 5 6 6 7 7 7 6 6 7 6 7 9 6 6 9 5 7 6 7 13 14 14 14 14 14 15 15 15 15
1 1 1 2 3 4 4 4 4 4 5 4 6 7 7 6 6 7 8 9 8 5 3 7 6 6 6 6 10 12 12 13 13 13 13 13 13 14
1 2 2 2 5 6 4 5 5 5 5 7 8 9 11 11 8 5 5 5 8 6 2 4 5 7 7 6 6 9 11 12 12 13 13 13 13 12
1 1 2 3 5 6 4 4 6 6 5 6 7 8 7 8 9 5 5 5 6 6 3 3 5 5 7 5 4 5 6 9 12 12 13 12 11 7
1 1 2 6 7 7 6 4 6 7 5 5 5 5 4 4 4 4 4 4 6 7 4 4 5 4 5 8 7 5 5 5 6 7 9 10 10 7
1 2 3 6 7 8 6 6 8 7 3 4 4 4 5 5 5 5 6 6 6 8 7 6 5 5 6 8 8 7 6 5 5 5 5 7 8 9
2 4 6 7 6 5 6 8 5 3 3 3 4 5 5 5 6 5 5 6 6 6 6 6 6 6 6 7 7 7 8 7 4 4 5 5 5 4
2 3 5 6 5 5 4 5 3 3 3 4 5 5 5 5 5 5 6 6 6 5 4 5 5 6 6 7 7 8 7 6 6 6 5 5 5 4
1 1 2 2 3 3 3 3 3 3 3 4 4 5 5 5 5 5 4 5 5 7 6 4 4 4 5 6 7 7 6 6 6 6 6 6 5 4
1 1 1 2 2 3 3 4 3 3 4 4 4 5 5 6 6 5 5 5 6 7 7 6 5 5 4 4 5 6 5 5 5 5 5 6 7 5
1 1 1 2 3 3 3 4 4 4 4 4 4 5 5 5 6 6 6 6 6 7 6 5 5 5 7 9 5 3 5 6 6 5 5 5 6 6
0 1 2 2 3 3 3 4 4 4 4 4 4 4 5 5 6 6 5 6 7 7 7 5 5 5 6 8 7 8 7 5 4 5 6 5 5 6
1 2 2 2 2 3 3 3 4 4 5 5 5 5 5 5 5 6 6 7 7 6 7 7 6 8 6 4 5 6 5 5 5 5 5 4 5 5
2 2 2 2 2 3 3 3 4 4 4 4 5 5 5 5 6 6 6 6 6 6 8 7 6 5 4 5 6 8 8 6 6 7 6 5 4 4
2 2 2 3 3 3 3 3 4 4 4 4 5 5 5 5 5 5 6 6 6 7 7 7 6 5 4 4 5 6 7 7 5 5 5 7 7 6
Wind_Direction
231 233 238 243 240 240 241 239 255 274 275 262 259 261 255 252 257 256 254 258 259 262 263 264 265 266 266 267 268 269 268 268 267 266 263 260 258 256
230 236 241 244 246 243 243 247 244 258 271 267 259 268 270 272 268 261 257 262 260 263 265 266 266 266 266 267 269 269 270 270 269 268 265 263 261 259
231 236 243 246 250 251 251 254 255 258 271 280 269 274 275 273 276 270 268 266 270 267 268 268 267 267 267 267 269 270 270 270 269 269 265 263 262 261
234 238 250 254 253 255 255 255 256 256 267 280 285 285 280 282 282 281 277 274 271 273 272 270 269 269 269 268 269 269 270 269 268 268 264 263 262 261
242 242 249 252 255 263 264 264 268 271 265 273 282 284 283 289 292 288 282 276 278 278 277 274 274 275 274 273 272 271 270 269 269 266 263 262 261 261
259 257 260 258 265 272 268 272 280 279 276 275 281 288 288 293 296 295 298 293 288 286 277 279 279 278 276 275 273 271 270 269 267 265 263 261 260 260
262 264 267 283 300 295 294 292 295 288 286 284 285 293 293 304 299 297 295 302 293 278 285 282 282 278 275 274 272 269 268 267 267 266 264 263 262 260
275 316 318 319 322 313 306 300 292 285 287 286 287 288 294 302 305 301 298 305 298 300 301 289 277 275 275 269 272 271 268 267 269 270 269 266 264 262
285 314 329 357 342 328 323 319 304 293 285 283 284 287 297 306 306 300 295 290 284 300 307 288 278 274 278 280 280 275 273 272 272 273 273 269 267 264
3 0 346 353 349 343 328 316 304 303 302 288 284 292 300 307 300 293 292 292 285 283 277 283 295 288 292 283 285 282 282 280 279 278 278 278 276 270
24 16 357 342 350 352 337 317 312 314 320 312 305 302 302 303 304 300 298 301 296 295 274 273 294 305 298 290 294 293 289 289 288 285 282 279 277 277
20 16 355 346 342 344 327 311 306 313 319 317 312 308 306 305 307 292 287 289 295 293 296 294 295 316 303 292 304 310 298 289 288 288 286 283 282 283
349 348 338 343 339 336 328 310 308 315 312 309 309 310 314 313 313 307 296 281 282 278 290 303 290 293 281 297 304 304 299 304 300 290 283 284 285 283
328 328 326 336 335 335 335 333 334 334 319 313 310 311 314 313 312 310 304 294 280 280 289 287 279 284 287 290 295 307 308 301 295 292 295 290 285 283
338 330 327 332 336 337 343 343 344 335 318 311 308 307 306 304 307 308 306 300 293 289 294 292 282 283 277 279 287 295 304 303 293 294 294 291 290 289
354 339 334 337 343 342 341 342 336 317 307 303 305 306 307 306 307 309 309 313 309 304 303 297 290 287 285 283 281 286 290 291 300 299 295 291 286 275
339 333 336 340 349 345 340 332 328 326 319 314 311 312 313 313 311 313 309 311 303 305 315 320 305 292 285 283 285 283 287 292 292 298 301 299 292 278
1 320 331 332 327 326 325 323 319 317 317 314 311 311 312 312 312 316 314 309 306 305 307 313 317 316 308 286 262 278 291 297 303 304 303 297 295 297
24 319 310 312 310 310 309 310 310 312 313 310 309 311 312 312 311 311 311 309 306 304 305 308 311 313 310 309 303 307 304 305 306 304 303 297 291 297
355 291 288 291 294 300 305 306 307 311 312 308 307 307 307 307 307 306 305 306 306 307 307 307 306 303 295 296 297 304 314 299 298 302 308 307 302 304
282 275 272 278 285 293 297 300 302 304 306 305 303 302 303 303 301 301 303 304 305 304 304 305 305 305 299 300 299 303 311 321 314 301 305 309 314 313
263 267 271 275 279 284 289 292 296 297 302 302 301 300 299 296 296 299 300 301 301 300 300 301 305 310 307 300 300 303 312 322 332 333 318 300 290 287
264 268 274 278 278 280 283 287 287 288 290 293 295 295 295 293 293 293 295 295 296 299 303 307 314 316 312 304 302 306 314 321 329 337 337 338 329 308